Weather History for Danbury, CT

Change the Weather History Date:

Saturday, January 5, 2013

  Actual Average Record
Temperature  
Mean Temperature 29 °F -  
Max Temperature 39 °F 37 °F 69 °F (1997)
Min Temperature 19 °F 20 °F -6 °F (1981)
Degree Days  
Heating Degree Days 36    
Moisture  
Dew Point 20 °F    
Average Humidity 64    
Maximum Humidity 92    
Minimum Humidity 45    
Precipitation  
Precipitation 0.00 in - - ()
Sea Level Pressure  
Sea Level Pressure 30.17 in    
Wind  
Wind Speed 8 mph (West)    
Max Wind Speed 16 mph    
Max Gust Speed 28 mph    
Visibility 10 miles    
Events      
Averages and records for this station are not official NWS values.
T = Trace of Precipitation, MM = Missing Value Source: NWS Daily Summary

Daily Weather History Graph

Daily Weather History Graph

Search for Another Location

Airport:

Trip Planner

Search our weather history database for the weather conditions in past years. The results will help you decide how hot, cold, wet, or windy it might be!

Date:

Astronomy

Jan. 05, 2013 Rise Set
Actual Time 7:20 AM EST 4:39 PM EST
Civil Twilight 6:49 AM EST 5:10 PM EST
Nautical Twilight 6:14 AM EST 5:44 PM EST
Astronomical Twilight 5:41 AM EST 6:18 PM EST
Moon 12:21 AM EST (1/5) 11:29 AM EST (1/5)
Length of Visible Light 10h 21m
Length of Day
9h 19m
Last Quarter, 44% of the Moon is Illuminated
Jan 5
Last Quarter
Jan 11
New
Jan 18
First Quarter
Jan 26
Full
Feb 3
Last Quarter

Hourly Weather History & Observations

Time (EST) Temp. Windchill Dew Point Humidity Pressure Visibility Wind Dir Wind Speed Gust Speed Precip Events Conditions
12:53 AM 32.0 °F 21.2 °F 17.1 °F 54% 29.96 in 10.0 mi West 16.1 mph 27.6 mph N/A   Clear
1:53 AM 30.9 °F 21.2 °F 17.1 °F 57% 29.99 in 10.0 mi West 12.7 mph 18.4 mph N/A   Clear
2:53 AM 30.9 °F 23.5 °F 18.0 °F 59% 30.01 in 10.0 mi West 8.1 mph - N/A   Clear
3:53 AM 30.9 °F 27.5 °F 18.0 °F 59% 30.04 in 10.0 mi Variable 3.5 mph - N/A   Scattered Clouds
4:53 AM 30.9 °F 24.3 °F 19.0 °F 61% 30.04 in 10.0 mi WSW 6.9 mph - N/A   Clear
5:53 AM 30.9 °F - 19.9 °F 64% 30.09 in 10.0 mi Calm Calm - N/A   Clear
6:53 AM 30.9 °F 26.2 °F 19.9 °F 64% 30.13 in 10.0 mi SW 4.6 mph - N/A   Clear
7:53 AM 27.0 °F 20.5 °F 19.0 °F 72% 30.16 in 10.0 mi WSW 5.8 mph - N/A   Clear
8:53 AM 33.1 °F 27.7 °F 19.9 °F 59% 30.19 in 10.0 mi SW 5.8 mph - N/A   Partly Cloudy
9:53 AM 37.0 °F 34.5 °F 21.0 °F 52% 30.22 in 10.0 mi West 3.5 mph - N/A   Clear
10:53 AM 39.0 °F 31.8 °F 21.0 °F 49% 30.23 in 10.0 mi WNW 11.5 mph - N/A   Scattered Clouds
11:53 AM 39.9 °F 32.5 °F 21.0 °F 47% 30.22 in 10.0 mi NNW 12.7 mph 21.9 mph N/A   Partly Cloudy
12:53 PM 39.9 °F 34.5 °F 21.0 °F 47% 30.21 in 10.0 mi NW 8.1 mph 17.3 mph N/A   Clear
1:53 PM 39.9 °F 34.5 °F 19.9 °F 45% 30.20 in 10.0 mi NW 8.1 mph - N/A   Clear
2:53 PM 39.9 °F 35.8 °F 19.9 °F 45% 30.22 in 10.0 mi WNW 5.8 mph - N/A   Clear
3:53 PM 39.0 °F 34.8 °F 19.9 °F 46% 30.23 in 10.0 mi WNW 5.8 mph - N/A   Clear
4:53 PM 32.0 °F - 21.9 °F 66% 30.25 in 10.0 mi Calm Calm - N/A   Clear
5:53 PM 28.9 °F 25.2 °F 21.0 °F 72% 30.27 in 10.0 mi West 3.5 mph - N/A   Clear
6:53 PM 25.0 °F 19.3 °F 19.9 °F 81% 30.28 in 10.0 mi WSW 4.6 mph - N/A   Clear
7:53 PM 24.1 °F - 19.9 °F 84% 30.27 in 10.0 mi Calm Calm - N/A   Clear
8:53 PM 21.9 °F - 18.0 °F 85% 30.25 in 10.0 mi Calm Calm - N/A   Clear
9:53 PM 19.9 °F - 17.1 °F 89% 30.24 in 9.0 mi Calm Calm - N/A   Clear
10:53 PM 21.9 °F - 19.9 °F 92% 30.22 in 9.0 mi Calm Calm - N/A   Clear
11:53 PM 24.1 °F - 19.9 °F 84% 30.20 in 9.0 mi Calm Calm - N/A   Clear